{"data":{"norad_id":64355,"intl_designator":"2025-126M","name":"STARLINK-34270","alt_names":[],"object_type":"PAYLOAD","status":"ACTIVE","operator":null,"country":"US","launch_date":"2025-06-13","launch_site_code":"AFWTR","launch_vehicle":null,"mission":null,"orbit_class":"UNKNOWN","rcs_meters":null,"size_class":null,"mass_kg":null,"dimensions":null,"purposes":["comms"],"wikipedia_slug":null,"has_3d_model":false,"image_url":null,"decayed_at":null,"tle_current":{"epoch":"2026-09-20T22:37:26.113440Z","epoch_age_seconds":96109,"freshness":"FRESH","line1":"1 64355U 25126M   26263.94266335  .00011871  00000+0  41655-3 0  9997","line2":"2 64355  70.0006 259.9721 0003127 265.4827  94.5991 15.29594962 71186","mean_motion":15.29594962,"eccentricity":0.0003127,"inclination_deg":70.0006,"raan_deg":259.9721,"arg_perigee_deg":265.4827,"mean_anomaly_deg":94.5991,"bstar":0.00041655,"rev_number":7118,"period_min":94.142569488929,"perigee_km":474.87859100622,"apogee_km":479.16580756946,"semimajor_km":6855.1591992878,"source":"CELESTRAK","updated_at":"2026-09-21T09:00:35.318080Z"}}}